Theta_e
339 339 339 339 338 338 337 334 331 331 332 333 334 333 330 331 334 335 334 332 331 331 332 332 328 323 318 318 318 314 311 312 314 319 319 318 320 322 323 323 325 326 327 327 325 322 321 321 320 319 318 317 316 316 316 316 317 318 318 317 316 314
338 339 339 339 340 340 339 338 336 334 333 334 335 333 331 333 335 336 335 335 334 333 333 333 333 329 321 318 321 317 313 311 311 316 319 319 320 322 323 323 325 326 326 327 325 322 321 321 322 322 321 319 318 318 318 319 320 320 320 319 318 317
338 338 338 338 339 339 340 339 338 337 336 336 336 334 332 334 335 335 336 336 335 334 332 332 333 331 324 320 321 321 316 312 310 312 318 321 320 322 324 324 327 328 326 327 326 323 321 320 322 325 324 323 321 321 321 321 321 322 322 322 321 320
336 335 334 335 336 337 338 339 339 338 337 336 337 335 334 335 334 334 335 334 335 334 334 333 331 329 327 324 323 323 319 315 311 310 316 321 321 322 324 326 328 329 328 327 326 324 321 319 322 325 327 326 325 324 323 323 323 324 324 324 323 322
333 332 331 331 331 333 335 336 337 338 337 337 337 336 334 333 333 334 334 334 334 334 334 333 331 331 331 328 325 324 321 317 313 310 314 319 321 322 324 326 328 329 329 329 327 324 321 320 322 324 326 326 326 325 325 325 326 326 325 324 324 323
332 332 330 329 329 331 333 335 336 337 337 336 336 335 333 333 334 334 333 334 334 333 332 331 331 333 333 330 327 326 324 319 315 311 312 318 322 323 324 326 329 329 330 330 328 325 322 321 322 323 324 325 325 325 326 327 327 326 325 324 324 323
334 332 329 328 328 329 331 332 334 335 335 334 335 335 334 334 333 332 333 335 335 333 332 330 330 332 332 331 328 327 326 322 317 312 312 318 323 325 327 328 329 329 330 331 330 328 324 322 323 323 324 325 325 326 327 327 327 326 325 324 324 323
334 331 328 328 329 328 328 329 331 333 333 332 333 334 333 333 331 331 334 335 335 333 333 331 331 331 330 328 327 329 329 324 320 315 314 321 327 328 330 330 330 330 331 331 331 329 327 325 324 324 325 326 327 327 327 327 327 326 324 324 324 324
331 330 328 329 329 327 327 328 329 330 331 330 331 333 332 330 330 332 335 335 335 334 333 332 331 332 331 329 327 329 330 326 323 320 317 322 328 330 331 332 331 330 331 331 330 329 328 326 325 325 327 327 327 327 327 328 327 326 325 325 324 324
330 331 329 329 329 327 326 326 327 328 329 330 331 332 330 328 329 332 336 335 335 333 333 332 331 331 332 331 329 327 330 329 325 323 321 322 328 330 330 331 331 331 331 331 330 329 328 327 327 327 328 328 328 328 328 329 328 326 325 325 325 324
330 331 330 330 330 328 327 326 327 327 329 331 332 332 329 328 329 333 336 335 334 333 332 332 331 331 331 331 329 326 328 330 327 325 325 323 325 328 330 330 331 331 331 331 330 329 328 327 328 329 329 328 328 328 329 330 328 327 326 325 324 324
329 330 330 329 330 329 327 327 326 326 328 329 330 330 327 327 330 334 336 335 334 333 332 331 331 331 331 330 328 325 327 330 329 327 327 326 324 326 328 330 330 331 331 331 330 329 328 328 330 330 329 329 328 328 329 330 329 328 326 325 325 324
331 330 330 329 330 329 328 328 328 327 328 328 329 329 326 324 329 334 336 335 334 333 332 331 331 331 331 331 328 325 326 329 330 328 328 328 326 324 326 329 330 331 331 330 329 328 328 329 330 329 329 328 328 328 328 329 329 328 327 326 325 324
334 330 329 329 329 328 329 330 330 330 329 330 330 329 326 323 328 333 335 335 334 333 332 331 331 331 332 332 329 326 326 329 330 329 328 329 329 326 324 326 329 330 330 329 328 327 328 329 328 327 327 328 328 328 328 329 329 329 328 327 326 325
333 330 328 329 330 329 330 330 330 331 331 331 330 328 326 324 328 333 335 335 334 333 332 331 331 331 331 332 331 329 328 328 328 328 328 327 329 328 326 325 326 328 329 328 327 328 329 329 327 327 328 328 328 329 329 329 329 329 328 327 326 325
333 330 328 329 330 330 330 329 330 331 331 332 330 327 325 325 329 333 334 332 330 332 333 331 330 330 331 331 331 331 330 329 328 328 328 327 327 329 328 327 327 328 329 328 328 329 328 328 328 328 329 328 328 329 330 330 329 329 329 328 327 326
334 332 329 328 329 329 329 328 328 329 330 331 330 327 326 326 329 332 332 327 325 330 332 331 330 329 330 330 331 332 331 330 329 328 328 327 327 329 329 329 329 329 330 330 329 328 327 328 328 329 329 329 329 329 330 330 330 330 329 328 328 326
337 334 330 328 328 328 329 328 327 328 329 330 329 329 328 328 329 332 332 326 325 329 331 330 330 329 329 330 331 331 332 330 328 327 328 327 327 329 330 330 330 330 330 330 329 328 328 328 329 329 329 329 329 330 330 330 330 330 329 329 328 327
340 337 332 330 329 328 327 327 327 328 329 330 330 329 329 329 329 330 330 328 328 330 330 330 329 328 328 329 330 331 332 330 327 327 327 327 327 328 329 330 330 330 329 329 329 329 330 330 330 330 330 330 330 330 330 330 330 330 329 329 328 327
339 337 335 335 333 331 328 326 328 329 329 329 330 330 330 329 328 329 328 328 331 331 330 330 329 328 329 329 329 331 331 329 327 327 327 327 326 326 328 329 329 329 329 329 328 330 330 331 331 331 330 330 330 330 330 330 330 329 329 329 328 327
336 335 334 335 336 335 331 329 330 330 328 329 329 330 330 330 329 329 329 329 331 331 330 330 330 329 329 329 329 330 331 329 327 328 328 328 327 326 327 328 328 329 330 329 329 329 330 330 331 331 330 329 329 329 329 329 329 329 329 329 328 328
334 334 334 335 335 335 334 333 333 330 329 329 328 329 331 331 330 329 330 330 330 331 331 331 330 329 329 329 329 330 331 329 327 328 330 330 330 329 329 329 329 329 330 331 330 329 329 329 330 331 330 329 329 329 328 328 328 328 328 328 328 327
333 332 333 334 334 333 333 334 333 332 331 330 329 330 331 332 331 330 332 332 332 331 331 330 330 330 330 330 329 330 330 329 329 328 329 330 331 331 331 330 330 330 330 330 330 331 330 330 330 330 330 330 329 329 329 329 328 327 327 328 327 327
329 327 329 332 334 335 334 333 334 334 332 331 331 331 332 332 331 332 332 332 333 332 332 331 331 331 330 330 330 330 329 329 330 330 330 331 331 331 331 331 331 331 330 330 330 330 331 330 330 330 330 329 329 328 328 328 327 327 327 326 326 326
328 328 329 332 335 337 335 334 334 333 333 332 332 332 333 333 332 333 333 333 334 333 333 333 332 331 331 331 331 331 330 329 330 331 331 332 331 330 330 332 331 331 331 330 330 330 330 330 330 330 330 329 328 328 328 327 327 327 326 326 326 326
329 327 327 330 334 335 335 335 333 333 333 332 333 333 334 333 333 333 333 333 334 334 334 333 333 332 331 331 331 331 331 330 330 332 331 332 332 330 329 329 330 331 331 331 330 330 330 330 330 330 330 329 328 328 327 327 327 327 326 326 326 327
329 327 326 329 333 334 334 335 333 333 333 332 332 332 332 333 333 334 333 333 334 334 334 334 333 333 332 331 331 332 332 330 330 331 331 332 332 330 329 329 330 331 331 331 330 330 330 330 330 330 330 329 328 327 326 326 326 327 326 326 326 326
329 329 329 330 332 333 334 334 333 333 333 333 333 332 332 333 333 333 332 331 332 332 333 334 333 333 333 332 331 331 332 331 331 331 331 332 332 332 330 330 330 330 330 330 330 330 330 330 330 330 329 329 328 328 326 326 326 327 327 327 326 326
329 330 330 331 332 333 333 334 333 333 333 333 332 332 332 332 332 331 331 331 331 331 332 333 333 332 332 331 330 330 330 331 331 330 331 332 332 332 331 330 331 331 330 329 330 330 330 330 330 330 329 328 328 328 327 326 326 326 326 326 326 326
330 330 330 331 332 332 333 333 333 333 332 332 332 333 333 332 332 332 331 332 332 331 331 332 332 332 332 331 331 329 330 330 330 330 330 331 332 332 331 332 332 331 330 329 329 329 329 330 330 330 329 328 328 329 328 327 326 326 326 326 326 326
330 330 330 331 332 332 332 332 333 333 333 332 332 333 333 332 333 332 331 331 331 331 331 330 331 331 331 332 331 330 330 330 330 330 329 330 331 331 331 332 331 330 330 329 329 328 329 330 330 329 329 328 328 329 329 328 326 326 326 326 326 326
330 330 330 330 331 331 332 332 332 333 333 332 332 332 332 331 331 329 328 329 329 329 330 331 330 328 329 331 332 332 331 331 330 329 329 330 331 331 332 332 330 330 330 330 329 328 329 330 330 329 328 329 329 329 329 328 327 327 327 327 326 326
329 329 329 330 330 330 330 331 332 332 332 332 332 332 332 331 330 327 325 326 327 329 331 331 330 328 327 327 329 331 332 332 331 330 329 329 330 331 331 331 331 330 329 329 329 329 329 330 330 329 328 328 329 329 329 328 327 327 328 327 327 326
328 328 328 329 329 329 330 330 330 331 331 331 331 331 331 331 330 328 327 327 328 330 330 330 329 328 326 326 327 328 330 331 331 331 330 330 330 330 329 329 330 329 327 328 329 329 329 330 330 329 328 329 329 329 329 328 327 328 328 327 326 326
327 327 327 327 328 328 328 328 329 329 329 330 331 330 330 330 329 328 328 328 329 329 328 329 330 329 328 328 327 327 329 330 331 331 330 330 329 329 328 329 330 328 327 328 329 328 329 329 329 329 329 329 329 329 329 328 328 328 328 327 326 327
325 326 326 327 327 327 326 327 328 328 328 329 330 330 330 330 329 329 328 328 328 329 329 330 330 329 328 327 327 327 328 329 330 330 330 330 330 329 327 328 329 328 326 326 327 328 328 329 329 330 329 329 329 330 329 328 328 328 328 327 327 327
324 324 325 326 326 326 326 327 327 327 328 328 329 329 329 330 330 329 328 328 328 329 329 329 328 327 327 326 326 328 328 328 329 329 330 330 331 330 327 326 328 329 327 326 326 328 329 329 329 330 330 329 330 330 329 328 327 327 328 327 326 326
Wind_Speed
22 21 21 20 19 18 16 15 13 12 11 10 9 8 8 9 9 7 6 6 5 7 8 8 6 6 9 12 14 14 14 14 16 17 16 15 13 12 10 9 9 10 10 12 13 14 15 16 16 17 18 18 18 18 18 18 18 18 18 18 17 16
22 20 20 20 19 19 17 16 15 13 12 11 11 10 10 10 10 9 7 6 6 7 9 10 8 6 7 10 12 14 14 14 16 17 18 17 15 14 12 9 9 9 9 10 11 12 13 14 14 16 17 18 18 17 17 17 17 17 17 17 16 14
23 21 21 20 19 19 17 17 16 14 13 13 12 11 11 11 11 10 9 8 8 8 9 10 10 9 7 9 11 13 14 15 16 17 19 19 17 16 13 11 9 9 9 10 10 10 11 12 13 14 15 16 16 16 16 15 15 15 15 14 13 12
22 22 21 20 20 20 19 18 17 16 15 14 14 13 13 12 11 10 10 10 9 9 10 10 10 9 8 8 10 12 14 15 16 18 20 20 19 18 16 13 11 9 10 10 9 9 10 11 12 13 14 14 14 13 13 13 13 12 13 12 11 10
22 22 21 20 21 20 20 19 19 18 17 17 16 15 14 13 12 11 11 11 10 10 10 10 10 10 9 8 10 12 13 15 16 18 21 22 21 20 18 15 12 11 10 11 10 9 9 9 10 12 12 12 11 11 10 10 10 10 11 11 11 10
21 22 21 20 20 21 21 21 20 20 19 18 17 16 15 14 13 13 12 12 12 11 10 10 11 12 11 10 11 12 13 14 15 18 22 23 22 21 19 16 13 11 10 10 9 8 8 8 8 9 10 10 9 9 9 8 8 9 9 10 9 9
20 21 21 21 20 20 21 21 21 20 20 19 17 17 16 15 15 14 13 14 13 12 11 10 11 12 12 12 12 12 12 14 15 17 21 23 22 21 19 17 14 12 10 9 8 8 8 8 8 8 8 8 8 8 8 7 8 8 8 9 8 7
19 20 21 21 21 20 20 20 20 20 19 19 18 18 16 16 16 15 15 15 14 12 11 10 10 11 11 11 12 13 13 14 15 16 20 22 21 21 19 17 15 13 10 8 7 7 7 7 7 7 7 6 6 6 6 6 7 7 7 8 7 7
20 20 21 21 20 20 20 21 21 20 19 19 19 18 17 16 17 16 16 16 15 13 11 10 10 9 9 10 11 13 13 15 16 16 19 22 21 20 19 17 16 14 11 9 7 6 6 5 6 6 6 5 4 5 5 6 6 7 7 7 7 6
21 21 21 21 20 20 20 21 22 20 20 20 20 18 17 17 17 17 17 17 16 13 12 10 9 9 9 9 10 13 14 15 17 17 18 21 22 20 19 18 17 15 13 10 8 6 5 4 4 5 5 4 4 4 5 5 6 7 7 6 6 5
22 22 22 22 21 21 21 21 22 21 20 21 19 18 17 18 17 17 18 18 16 14 12 11 9 9 9 9 10 13 15 16 17 18 18 19 21 21 20 19 17 16 14 12 10 8 6 4 3 3 3 3 3 3 3 4 5 6 6 5 4 3
23 23 23 23 23 21 21 21 21 21 21 21 19 17 17 18 18 18 19 19 16 14 13 11 10 10 9 10 11 13 16 17 17 18 19 18 20 21 21 19 18 17 15 13 11 10 8 6 5 3 2 2 2 2 3 3 4 4 4 4 3 3
23 24 24 24 23 22 21 20 20 20 21 21 19 17 18 19 20 19 19 19 16 14 13 12 11 11 10 10 11 12 15 17 16 18 19 19 19 20 21 20 19 18 16 15 13 11 9 7 6 5 3 2 2 2 2 2 2 3 3 3 2 2
22 24 25 24 23 22 21 20 19 19 19 19 18 18 18 20 20 19 19 19 16 14 14 14 13 12 12 11 11 12 14 16 16 17 19 20 20 20 21 21 20 19 18 17 15 13 11 9 7 6 4 2 2 2 2 3 3 3 3 3 3 2
23 24 25 24 23 23 22 21 20 18 17 16 16 17 18 20 20 18 20 20 17 15 15 15 14 13 13 13 13 13 13 14 16 18 19 21 22 22 21 21 21 20 19 18 16 14 12 10 8 6 5 3 2 2 2 3 3 3 3 3 3 1
23 23 24 24 23 23 23 22 21 19 17 15 16 17 18 20 19 19 20 20 18 17 16 16 15 14 14 14 15 15 14 14 15 17 19 21 23 24 23 23 22 20 19 18 17 15 13 11 9 7 5 3 2 2 2 3 3 3 3 3 3 2
21 22 24 25 25 25 25 24 22 21 19 18 17 17 18 20 20 21 21 20 20 18 17 17 16 15 15 16 16 16 16 15 15 16 18 21 23 25 25 24 23 21 20 18 16 15 13 11 9 8 6 4 4 3 3 3 4 4 4 5 5 3
19 21 23 26 26 27 27 26 24 23 22 20 20 19 19 20 20 21 21 20 20 19 18 18 17 17 17 17 17 17 17 16 16 16 17 19 22 25 25 24 23 22 20 18 16 15 13 11 9 8 7 6 6 5 4 5 5 6 6 6 6 5
18 20 23 25 26 27 28 27 24 22 22 21 21 21 20 21 22 22 21 21 21 20 19 19 18 18 18 18 18 19 18 18 17 16 17 18 21 24 25 24 23 21 19 18 17 15 13 11 9 9 9 8 7 6 6 6 7 7 6 7 8 6
16 16 20 23 24 25 26 26 24 22 23 23 22 22 22 23 23 23 23 22 22 21 21 20 19 19 20 19 19 19 19 19 19 18 18 19 20 22 24 24 22 20 19 18 18 16 14 12 10 10 9 9 8 7 6 6 7 8 7 8 9 7
10 11 17 21 21 22 24 24 23 22 24 25 24 24 24 24 25 25 24 23 23 22 22 21 20 20 21 20 20 21 20 21 21 20 20 20 20 21 21 21 21 20 18 18 18 17 15 13 11 10 10 9 8 7 7 7 8 8 8 8 9 8
12 14 16 18 18 20 21 21 22 22 23 25 25 25 26 25 25 26 26 24 23 23 22 22 21 21 22 22 22 22 22 23 23 22 22 22 22 21 21 21 20 20 19 18 17 15 14 13 11 11 11 9 7 7 7 8 9 9 9 9 8 7
14 15 15 16 16 17 17 18 20 20 20 22 24 24 25 26 25 26 26 24 23 23 22 23 23 23 24 23 23 23 24 24 25 24 23 24 23 23 22 21 21 20 19 18 17 15 13 12 12 11 10 8 7 8 7 8 10 10 10 11 10 8
12 15 16 15 15 16 16 16 17 17 17 19 21 22 23 24 25 26 25 24 24 24 24 24 24 25 25 24 23 24 25 25 25 25 25 25 25 24 22 21 20 19 18 18 17 16 14 14 13 12 11 9 8 9 9 10 11 10 11 12 12 10
14 18 18 17 16 16 16 15 14 14 15 17 19 20 21 22 23 24 25 25 26 25 25 25 25 25 25 25 24 24 25 25 25 25 26 26 25 24 23 21 20 19 18 17 17 16 15 15 15 15 14 10 8 8 9 10 9 9 11 11 10 10
15 17 18 18 17 15 15 15 13 12 14 17 18 19 21 22 21 22 24 25 27 26 25 24 24 25 25 25 24 23 25 26 25 25 25 26 26 25 23 21 19 19 19 18 17 16 16 16 15 15 17 14 10 7 7 9 10 8 9 10 10 10
14 17 19 19 18 15 13 15 15 14 14 17 18 19 20 20 19 19 22 24 26 26 24 23 22 23 24 24 23 23 24 25 26 25 24 24 25 24 22 21 20 19 20 19 17 17 16 16 16 16 17 16 14 10 6 7 9 8 8 10 11 11
15 17 18 18 18 16 14 15 16 15 15 17 17 18 18 17 17 18 20 22 23 22 22 21 20 20 23 24 24 24 24 25 26 26 24 24 24 23 21 21 21 21 21 20 18 17 16 16 16 16 16 17 17 14 10 7 7 8 8 9 10 11
14 15 15 15 15 15 14 15 16 13 14 17 17 16 16 16 17 18 19 19 19 19 19 20 19 21 25 24 23 24 25 26 27 26 25 24 25 25 23 22 22 21 20 19 19 18 17 17 17 15 15 17 18 16 14 10 8 8 8 8 9 11
12 13 14 14 13 13 13 15 17 15 14 16 16 16 16 17 18 20 20 20 19 17 18 19 19 22 24 23 22 23 24 25 26 27 26 25 26 26 23 23 21 19 18 18 19 19 18 18 17 15 14 16 16 16 15 14 11 10 9 8 8 9
11 11 12 13 13 13 13 14 16 16 17 16 15 16 16 16 17 19 20 22 18 15 15 16 17 18 21 22 22 23 24 23 24 27 27 26 27 26 24 23 20 18 19 19 19 20 19 19 18 16 14 14 15 15 15 13 10 9 9 8 8 8
13 13 13 13 14 14 14 14 15 16 18 17 16 17 17 17 18 19 20 21 18 15 14 14 14 14 17 21 22 23 24 22 23 27 27 26 26 25 23 22 20 20 21 20 20 20 20 20 19 17 16 15 15 16 15 13 10 8 8 7 8 9
15 16 16 16 16 16 16 16 15 16 17 17 15 16 17 18 18 19 19 20 18 15 15 14 13 13 14 17 21 23 24 23 24 26 27 26 26 25 23 23 22 21 20 21 21 20 20 19 19 19 17 16 16 16 16 14 12 10 8 7 8 9
16 16 16 17 17 18 19 18 18 18 18 19 18 18 19 18 17 18 20 19 17 14 14 13 12 12 13 15 18 22 23 24 25 26 26 25 24 25 24 24 22 19 18 20 20 19 19 19 19 19 18 17 17 17 16 15 13 12 10 8 8 10
17 18 18 18 19 20 21 19 18 17 17 17 20 21 21 19 16 17 18 17 15 13 12 11 10 10 12 14 16 19 20 22 24 25 26 24 23 24 24 23 22 19 18 20 19 19 20 20 21 20 19 18 18 17 16 15 14 13 11 9 8 10
17 18 18 18 18 19 19 18 16 15 13 13 16 18 18 18 17 17 16 15 14 13 12 10 9 9 10 12 14 16 17 19 21 22 25 25 24 24 23 22 22 21 21 20 20 21 21 22 22 21 20 19 18 17 17 16 15 15 13 11 10 10
17 18 17 16 15 15 16 16 15 14 13 13 15 16 16 16 17 17 16 15 15 15 14 11 9 9 10 10 11 13 15 16 17 20 23 24 24 24 22 22 23 23 22 21 21 21 21 22 22 21 20 19 18 17 17 17 17 16 14 12 12 12
Wind_Direction
191 190 190 189 192 190 187 188 189 187 184 183 179 169 165 162 163 168 169 168 167 155 155 167 180 180 169 161 161 168 176 181 181 182 182 183 191 196 193 178 152 135 128 123 116 108 102 97 93 91 90 91 91 90 88 86 83 79 75 72 69 65
193 191 192 192 191 193 193 192 192 188 185 184 181 177 171 169 171 175 179 183 177 168 169 174 179 190 186 170 163 166 174 182 184 186 187 186 191 198 197 188 165 148 143 132 119 110 105 99 96 92 90 90 91 91 89 85 80 75 71 68 67 64
195 193 195 196 195 197 195 192 192 188 186 186 185 185 180 178 181 184 190 194 190 181 176 177 182 192 197 182 170 167 172 181 186 187 189 189 192 198 198 193 178 159 153 141 124 115 109 103 101 97 93 92 92 92 88 83 76 69 64 62 61 59
198 199 199 200 200 201 199 198 197 194 195 195 194 193 189 187 189 196 202 202 200 188 177 180 186 191 194 186 178 172 173 180 186 187 188 190 193 198 199 195 186 172 160 149 135 125 116 108 108 104 99 97 95 92 87 80 72 63 57 54 50 48
201 203 203 203 204 204 204 205 203 202 202 200 200 197 193 192 196 203 206 204 200 191 182 183 185 185 185 188 188 180 176 181 188 188 188 191 193 196 200 198 192 182 168 157 146 134 122 112 110 108 104 101 97 92 87 79 68 56 49 46 42 39
200 203 205 205 206 205 204 206 205 204 202 200 200 198 194 196 203 204 204 203 196 191 187 187 186 186 186 191 194 186 180 183 190 193 190 192 193 194 198 201 199 191 178 163 152 143 132 121 114 109 106 103 97 92 86 77 66 54 45 43 41 37
198 201 205 207 210 209 208 208 208 206 205 206 205 200 198 201 207 204 200 198 193 190 190 190 190 190 191 193 194 189 184 184 190 195 192 191 192 193 195 199 201 200 188 168 156 149 140 132 126 116 109 102 93 87 81 72 62 51 44 43 43 42
199 200 205 208 212 213 212 212 212 212 210 212 210 205 203 205 206 201 197 195 191 193 194 195 195 194 194 195 196 190 186 186 189 194 192 189 191 192 192 195 200 203 196 179 168 156 145 138 135 129 119 106 91 81 74 68 58 47 42 45 48 48
205 205 208 209 212 214 214 214 214 214 212 214 212 209 206 205 205 199 195 194 194 197 196 198 201 204 203 199 198 193 188 187 189 193 193 192 193 193 192 192 196 202 203 194 185 173 157 146 140 136 130 117 96 80 70 68 60 50 49 57 62 59
210 211 213 212 213 215 216 216 215 214 214 216 211 208 206 204 205 202 197 195 197 199 197 200 206 213 214 206 203 198 191 188 190 193 194 196 198 197 196 196 196 202 207 204 200 193 180 165 149 140 136 125 108 88 74 69 62 58 63 69 67 60
213 215 215 216 217 217 218 218 218 216 215 216 210 205 206 206 206 205 201 197 198 200 197 200 208 213 215 214 211 204 196 190 191 195 194 197 203 202 201 201 200 203 209 210 210 205 199 193 179 162 143 128 117 101 83 73 61 63 72 74 62 48
216 219 220 221 223 221 220 221 223 221 218 218 212 207 208 209 208 207 203 201 201 202 201 202 209 213 212 218 218 209 200 192 190 197 199 198 204 207 205 202 202 205 210 213 214 212 211 207 203 200 171 136 119 109 90 81 66 69 78 76 71 61
217 219 223 225 226 225 222 224 227 225 222 221 214 208 211 211 211 210 206 204 204 204 203 204 211 215 211 216 217 208 202 196 192 196 202 203 204 208 208 206 203 205 211 214 216 217 218 217 215 217 207 177 142 122 102 99 87 90 91 90 101 82
217 218 222 225 228 229 227 228 230 227 225 223 216 210 213 215 213 212 209 207 207 206 204 206 212 216 213 213 214 210 205 202 200 199 202 205 207 208 209 209 207 207 210 215 219 220 222 225 226 229 225 202 162 138 120 128 125 123 118 126 136 102
221 222 223 226 230 233 233 232 232 229 227 224 219 216 217 219 217 213 210 208 209 208 206 207 212 216 215 215 215 214 211 207 207 205 202 205 208 209 210 210 209 208 210 214 219 221 223 226 229 230 221 201 175 152 136 142 150 158 153 154 159 129
225 227 228 229 233 237 238 237 236 232 229 226 222 223 224 222 220 216 212 212 213 212 209 209 213 216 216 218 218 217 216 212 209 207 205 205 207 208 209 210 209 207 209 213 218 221 225 227 227 223 215 211 206 194 178 175 183 188 178 175 180 168
230 231 232 234 237 240 242 243 243 238 235 233 228 229 228 225 224 221 217 217 217 213 212 212 214 215 216 219 221 219 218 217 213 209 209 208 207 207 208 211 210 207 207 211 218 224 229 230 226 221 222 228 231 233 231 229 223 208 194 189 188 187
239 236 236 239 241 243 244 245 246 242 241 240 237 233 230 228 228 226 224 223 221 216 213 213 214 214 215 219 221 220 219 218 215 210 210 212 210 207 208 211 212 210 209 212 219 226 231 230 226 225 229 233 238 243 246 251 239 213 200 196 192 194
249 243 241 242 244 246 247 247 246 244 242 243 244 240 236 235 232 230 230 228 225 222 218 215 213 213 215 218 220 220 218 216 214 209 208 212 212 210 209 212 214 214 213 214 217 221 225 226 226 230 234 235 239 246 249 248 231 211 204 200 195 198
260 249 246 249 250 251 251 249 248 246 244 245 248 247 244 240 234 232 232 230 228 224 221 217 213 214 216 218 220 220 217 215 213 209 210 212 213 212 212 213 214 214 214 214 215 218 222 222 224 233 234 233 239 242 243 234 218 211 210 203 199 200
284 267 257 258 260 258 257 254 249 248 248 249 251 250 250 245 237 235 232 229 228 225 223 221 216 216 218 218 218 218 215 213 211 209 211 216 216 215 214 214 214 212 210 213 216 219 222 220 220 227 223 224 234 236 235 227 214 212 212 205 203 210
309 296 278 268 269 267 266 263 256 255 253 252 254 251 252 252 244 238 234 230 228 225 225 226 224 221 220 219 218 216 214 212 210 209 210 216 219 216 213 213 212 210 208 210 214 220 223 219 216 219 218 217 215 219 231 231 220 214 211 211 211 218
307 293 278 267 267 270 272 270 266 266 258 253 256 254 252 257 254 244 238 234 230 226 226 229 229 225 221 219 218 216 216 213 211 211 211 215 218 216 212 212 213 212 211 210 211 216 221 219 217 213 213 212 198 191 199 219 227 220 213 218 218 213
303 282 270 262 263 268 272 272 271 271 263 256 258 259 257 258 257 251 242 238 236 230 228 229 229 226 221 220 219 218 219 219 217 217 216 216 218 218 214 213 214 215 215 215 215 216 217 216 217 214 207 201 196 195 202 218 230 225 216 220 222 213
300 290 282 273 269 274 278 275 270 263 258 254 255 257 259 259 258 257 252 248 245 238 232 230 228 226 222 220 221 221 222 223 224 225 222 220 221 221 217 215 219 221 220 223 224 222 220 215 215 219 215 202 188 202 221 221 217 223 222 220 223 216
292 288 283 277 272 276 284 283 273 258 250 249 248 247 253 259 260 259 259 255 252 249 243 236 231 228 224 222 223 224 224 226 228 229 226 225 226 223 217 216 222 227 226 226 228 228 227 222 216 216 218 212 201 204 221 210 201 216 224 218 217 211
284 276 271 271 270 270 278 283 279 270 262 257 250 244 248 258 261 262 264 262 261 261 257 250 241 232 227 225 226 227 228 229 232 233 230 228 231 228 221 221 224 228 229 226 225 229 230 229 223 216 214 214 214 215 217 205 200 204 209 211 212 207
281 277 276 276 276 272 271 278 278 272 268 267 260 253 252 255 258 265 270 271 273 272 267 262 253 238 232 230 229 231 231 233 235 237 237 234 235 235 228 227 225 222 225 225 223 227 231 232 230 223 216 213 214 217 222 218 205 199 194 197 202 205
287 288 292 290 285 279 274 277 278 267 261 264 266 266 264 259 260 262 265 270 276 277 271 265 254 240 236 234 233 233 233 235 235 235 240 240 241 240 234 233 229 219 219 223 223 225 229 231 232 229 224 220 216 215 219 222 213 203 190 184 191 202
310 305 308 309 306 295 283 281 281 274 266 263 265 270 270 268 268 265 264 268 273 275 271 267 260 247 241 238 234 235 237 238 235 232 235 239 242 244 243 243 237 225 223 226 227 226 226 228 230 230 228 224 217 210 212 217 217 212 201 192 190 197
340 327 320 319 321 315 304 297 292 287 282 275 271 275 279 279 279 279 281 284 289 287 274 270 270 260 251 245 237 235 238 240 236 232 231 235 240 242 245 247 242 233 231 231 230 228 226 225 225 222 219 216 215 211 214 221 226 220 211 209 199 190
348 344 337 327 321 318 314 309 303 297 294 290 284 281 285 287 284 287 291 295 301 299 283 277 279 273 263 256 249 244 241 240 236 232 230 232 237 237 239 246 243 237 236 234 231 230 228 226 222 218 214 210 212 215 219 224 227 220 208 209 204 193
353 348 341 329 318 315 314 312 306 301 298 297 293 282 280 284 283 283 286 290 296 297 290 285 283 282 275 265 260 255 251 246 238 233 231 232 235 234 233 239 241 238 238 237 233 230 231 231 225 221 218 211 210 212 214 216 216 212 200 198 201 193
351 341 334 327 323 319 317 314 307 301 297 294 292 284 281 284 283 281 281 283 288 292 289 283 276 279 280 271 262 257 254 252 245 239 235 233 235 236 233 236 240 237 235 239 239 236 236 234 228 224 220 216 213 210 209 210 209 207 202 204 205 194
337 328 329 331 327 319 314 312 306 299 294 291 289 287 285 285 282 282 282 282 283 284 282 280 275 275 276 271 263 258 254 252 250 247 243 236 234 236 235 236 236 230 227 234 239 240 238 232 226 222 219 217 216 211 207 207 207 208 207 209 208 202
335 327 326 323 317 310 306 306 304 298 292 286 284 283 283 281 277 278 283 285 283 278 274 274 275 274 271 266 261 260 256 253 252 250 247 241 234 233 235 237 236 229 226 230 234 237 238 232 226 221 217 216 216 213 209 208 207 207 208 207 204 205
340 335 332 325 318 313 308 306 306 305 298 286 280 276 273 271 270 270 274 279 279 274 270 269 268 264 260 257 257 258 256 254 251 247 246 243 237 233 232 236 237 233 230 232 234 236 236 232 225 219 215 213 215 215 212 210 207 206 207 208 207 205